Terminal Aerodrome Forecast
Issued by NWS

Home | Current Version | Previous Version | Graphics & Text | Print | Product List | Glossary On
Versions: 1 2 3 4 5 6 7 8 9 10 11 12 13 14
000
FTUS43 KFGF 141300 AAA
TAFBJI
TAF AMD
KBJI 141355Z 1414/1512 25007KT P6SM BKN009
      TEMPO 1414/1418 BKN012
     FM142000 29012KT P6SM BKN050
     FM150100 29003KT P6SM SCT050=

USA.gov is the U.S. government's official web portal to all federal, state and local government web resources and services.